Helicity
88 77 40 105 115 30 92 110 118 85 65 13 24 40 34 55 84 39 26 19 19 5 5 1 24 6 -5 -32 -35 -27 -12 -22 -15 -16 -7 -7 -3 -0 9 17 12 -3 -18 -10 -10 -6 1 4 -2
98 98 120 125 34 12 50 127 92 102 26 -12 2 4 26 35 36 22 2 11 20 19 11 7 9 13 -0 -34 -22 -18 -12 -7 -8 -14 -7 -3 -2 -0 3 13 12 -1 -21 -16 -10 -7 -6 -2 -0
88 90 96 128 54 25 17 -2 3 8 10 30 28 15 33 43 51 44 28 6 4 14 13 -25 -9 17 -11 -28 -16 -9 -6 -2 -0 -7 -2 1 -3 -4 -6 -5 -10 -17 -19 -17 -16 -14 -14 -12 -6
104 122 166 26 23 30 17 -0 -19 -10 5 15 3 20 6 55 35 25 13 6 14 18 15 -5 -17 4 -0 -12 -2 -0 5 3 7 17 3 -1 -0 -1 -10 -13 -12 -12 -6 -6 -5 -4 -1 -2 4
101 108 37 -1 -8 5 -4 -2 -2 -18 -16 -17 3 12 15 42 30 24 13 13 25 26 27 22 9 -1 5 15 11 12 11 7 4 -6 -9 -3 2 -0 -3 -0 3 6 9 3 9 18 21 20 26
100 97 10 -1 -0 2 -11 24 -7 -14 -7 4 6 5 2 -0 5 17 23 29 37 30 34 45 35 61 87 37 28 30 21 17 18 19 -12 -8 -7 -1 2 9 14 10 15 19 28 40 42 50 44
69 66 11 4 14 12 17 36 -2 1 2 4 9 8 -8 -18 -3 13 25 32 29 28 41 65 106 89 71 37 45 41 45 36 24 12 -4 -3 -11 -10 7 -6 1 16 24 30 36 47 49 53 55
60 59 34 29 20 18 23 12 5 -20 13 1 35 3 -10 2 -20 -6 11 26 24 40 40 62 130 144 170 139 50 45 57 43 38 32 6 1 -13 -9 -6 3 10 17 23 28 28 28 42 54 54
40 33 -8 4 11 32 47 57 40 18 -14 7 40 60 42 9 -15 -26 -8 10 22 23 38 60 117 139 134 154 93 86 55 57 51 30 20 7 4 3 27 27 7 22 24 29 26 28 46 64 94
51 -23 -12 6 3 28 61 51 24 14 6 27 41 38 27 14 -5 -1 -7 -0 7 24 40 55 77 52 24 134 108 119 116 67 46 33 15 32 20 26 21 9 17 25 31 39 27 30 52 60 4
23 -6 -13 -14 -30 -21 36 -6 -5 3 14 19 17 16 22 11 4 -0 -12 -18 2 13 34 45 61 66 24 -24 96 132 134 92 58 42 26 29 29 13 22 9 13 18 18 24 14 10 4 -0 3
19 -6 -29 -13 -22 -23 -14 -13 -13 13 35 9 15 15 8 13 11 8 8 8 -0 -2 24 57 75 79 82 57 62 55 152 137 86 46 25 35 29 28 35 29 13 16 6 5 5 -1 -4 -1 -0
9 -7 -4 18 7 -16 -1 -29 -5 -10 -14 6 14 7 3 -0 8 -2 6 9 -4 -7 23 56 100 120 143 127 19 12 61 155 122 71 56 44 38 38 38 27 24 18 8 4 2 -3 -8 -8 -7
-22 -0 34 12 13 8 -20 7 -7 12 -9 4 2 -1 -2 1 5 7 14 27 11 -9 2 57 98 118 105 42 -13 2 10 44 75 76 86 57 48 53 41 24 21 14 13 12 3 2 -5 -0 -2
17 44 29 33 27 20 -31 13 -3 36 8 13 3 -6 1 -5 2 -4 4 23 18 1 -2 40 102 101 80 44 73 34 21 11 31 78 88 67 65 48 66 28 29 27 17 4 -3 6 -8 -3 -4
8 26 50 79 53 7 -1 37 36 20 16 22 13 13 5 2 -4 4 10 6 28 15 20 25 75 108 88 72 53 40 37 46 79 95 84 74 69 49 49 35 34 34 20 14 6 1 -5 -1 6
50 10 -10 50 45 60 3 5 48 37 28 36 20 26 22 24 22 19 24 17 24 34 30 40 51 102 93 85 83 50 20 46 58 63 69 79 71 39 53 37 31 31 22 12 2 -2 14 13 1
32 39 12 -6 27 33 18 -6 35 59 44 26 11 14 18 34 41 47 37 35 25 49 53 66 45 78 75 61 80 51 13 -12 11 31 31 62 64 39 48 26 21 23 18 12 6 29 15 7 -7
54 24 3 28 55 -16 -18 14 42 3 36 14 -5 14 22 24 47 56 41 40 37 51 44 19 16 42 39 50 52 72 27 -19 24 34 17 19 37 35 31 27 12 20 19 12 16 17 4 15 -6
6 -32 52 49 95 71 135 -5 -13 12 5 -17 22 29 -6 30 72 73 61 44 34 40 21 -7 -17 8 1 -7 1 -4 29 2 -22 35 17 8 11 17 31 12 21 18 27 19 2 10 6 9 16
17 3 17 12 101 98 85 105 36 21 5 -23 -25 42 54 39 57 69 70 51 34 39 18 5 -11 -0 8 23 7 1 16 6 22 26 29 16 14 19 13 6 16 21 21 21 -7 -3 5 1 15
1 43 -4 45 57 73 177 72 42 39 39 14 12 34 89 78 30 56 62 62 47 54 37 26 7 15 15 6 2 -5 -5 -16 24 41 40 43 15 9 8 5 19 33 35 26 10 16 13 11 -8
58 35 11 30 50 29 127 52 19 33 41 55 26 20 34 46 23 50 49 55 61 57 46 42 20 18 11 -13 -40 4 31 28 44 50 46 30 25 18 13 1 29 39 22 8 27 1 7 12 2
86 33 34 26 -36 17 11 19 15 51 10 26 18 13 29 52 43 42 49 68 80 55 37 35 45 31 18 4 -13 -5 45 41 23 47 47 48 45 27 6 13 29 24 26 11 -1 -0 15 21 10
25 1 -14 4 -1 -2 53 40 33 -6 12 -0 42 57 32 45 46 92 101 84 82 69 20 -8 10 -5 -5 9 -2 2 43 60 46 19 40 56 40 18 13 21 17 4 -13 -24 -15 11 -2 17 19
23 46 26 35 21 20 90 -8 44 37 20 19 12 22 34 72 61 78 84 67 66 45 14 -12 12 1 -95 -24 -27 -24 32 63 47 51 53 57 40 24 41 9 14 9 -16 -21 -20 2 10 26 13
52 2 30 -0 -7 -13 26 22 55 12 15 30 16 -5 23 33 43 66 62 48 34 22 4 -5 9 21 27 -2 -16 -26 15 46 57 42 47 63 43 77 48 36 12 -16 -29 -29 -28 -2 11 6 1
61 48 -13 -12 21 7 -0 1 35 31 12 48 41 17 19 22 41 47 52 36 22 13 4 -2 11 50 25 1 4 42 35 20 15 24 58 57 48 22 7 -5 -22 -23 -31 -35 -12 7 -5 -16 -8
60 26 8 33 20 19 6 17 12 2 -9 39 46 50 70 50 58 65 30 18 21 22 28 24 26 25 55 38 50 51 39 74 48 44 32 12 5 -4 -25 -30 -33 -27 -10 16 13 -8 -14 -24 -16
25 12 4 17 27 12 -1 -6 19 -13 18 29 24 20 51 73 76 67 38 35 30 32 34 36 37 45 38 25 35 50 34 52 42 22 7 4 -1 -24 -23 -30 -27 -20 -12 2 -5 -21 -19 -11 -5
Wind_Speed
50 47 38 33 32 11 3 24 31 30 28 20 19 18 13 16 20 12 17 20 24 5 10 17 30 29 37 45 52 60 62 66 68 70 69 68 66 65 62 59 57 54 46 36 35 33 30 28 27
50 46 39 36 23 20 13 22 35 32 21 10 14 14 12 12 12 4 11 21 22 8 17 9 31 27 30 46 51 55 58 63 65 67 67 66 64 62 59 56 53 49 44 38 34 32 30 27 25
48 38 31 26 26 30 27 23 5 44 30 27 19 15 17 11 16 17 6 19 14 4 16 26 21 24 33 38 42 48 50 59 61 64 62 63 61 58 54 51 45 43 44 38 33 31 29 29 28
44 38 34 39 32 26 32 41 18 26 20 17 14 12 11 17 24 13 9 20 8 3 16 25 17 20 22 33 37 45 45 50 49 41 58 60 58 55 51 44 41 39 39 35 32 31 32 32 33
40 36 49 59 54 36 33 33 15 22 21 20 13 12 12 14 9 10 6 12 4 5 12 11 8 12 22 20 32 37 42 43 46 55 59 54 50 51 49 47 45 42 38 37 34 34 36 35 33
38 34 48 55 57 52 43 15 13 27 28 20 20 18 16 16 11 9 8 10 9 5 14 6 8 7 12 18 27 26 28 27 25 21 57 52 51 49 48 48 46 45 44 40 36 33 32 30 31
31 33 46 55 54 50 48 33 42 40 38 25 23 18 13 10 17 12 8 7 7 7 8 11 5 2 4 11 13 12 10 11 9 28 48 48 49 48 48 49 47 44 41 37 29 27 27 27 27
30 36 44 46 48 47 43 43 40 24 21 13 28 17 13 10 16 9 9 10 9 8 12 12 6 4 9 8 2 1 2 3 13 19 30 41 44 47 45 49 45 42 38 34 31 28 28 27 26
31 38 42 44 38 44 42 45 43 27 13 15 13 15 17 25 18 12 11 13 12 12 12 16 13 8 4 17 9 14 10 13 21 23 30 27 45 42 50 17 36 36 33 30 27 25 26 25 25
33 29 29 20 30 41 43 41 38 42 37 29 21 22 31 34 36 26 22 19 17 17 14 15 19 18 20 15 14 15 19 18 22 25 28 30 29 33 27 32 34 34 33 32 30 28 27 24 23
36 35 29 27 28 31 35 26 33 33 38 37 31 36 41 43 44 41 37 30 23 20 17 14 16 17 23 28 5 14 20 21 17 21 27 24 29 39 42 36 41 37 36 32 31 29 29 35 33
36 35 32 27 29 30 30 27 26 22 22 25 28 30 32 34 33 35 33 29 24 18 17 17 13 13 10 7 11 18 15 22 20 21 34 21 31 30 31 35 32 36 33 32 31 33 35 33 31
34 32 31 31 28 27 31 31 25 24 23 26 23 26 27 28 30 30 29 26 20 16 15 15 12 1 4 1 35 40 28 26 26 26 29 23 26 30 36 31 34 32 32 31 32 32 34 35 32
27 32 32 31 31 32 32 34 33 24 23 24 23 21 21 23 25 27 26 25 21 17 16 15 10 2 3 5 5 11 5 14 36 30 29 27 25 25 30 27 30 31 31 33 35 37 37 36 35
27 33 27 27 30 29 28 31 31 30 27 22 19 17 17 18 22 23 25 24 20 17 17 15 10 3 7 8 5 16 8 9 14 24 32 29 27 22 31 25 28 32 34 34 37 35 37 36 39
25 25 22 21 26 23 25 30 28 26 28 25 20 16 14 15 17 20 22 24 21 19 17 14 9 1 7 14 13 18 9 15 28 34 38 31 28 26 29 29 30 34 37 37 40 41 42 42 38
27 20 32 16 19 20 18 28 23 23 25 25 20 22 19 16 17 19 20 22 22 20 18 15 8 1 5 14 23 28 17 11 7 32 36 36 33 29 33 32 34 37 39 40 41 45 39 39 48
25 24 20 31 15 17 11 12 21 19 21 19 24 22 23 22 26 24 20 20 21 22 21 16 8 2 5 13 19 30 13 10 8 34 36 45 41 34 35 36 38 40 41 42 47 44 45 50 43
21 35 38 24 24 13 4 50 45 10 15 18 19 17 20 24 17 19 19 18 21 24 24 17 16 10 6 3 6 20 15 12 41 54 57 54 48 43 40 39 40 41 44 48 45 46 53 35 44
22 40 30 21 19 9 9 9 24 23 23 27 24 16 26 31 26 24 23 23 22 26 28 28 24 19 11 4 7 2 10 13 6 45 56 58 51 49 47 44 44 45 49 51 47 23 27 29 40
19 35 36 5 18 10 10 10 33 35 28 33 29 23 21 30 31 30 28 25 24 25 29 30 33 18 9 3 8 17 19 15 30 44 43 48 53 50 50 48 49 50 51 49 42 27 31 34 37
38 33 38 29 21 21 19 13 13 27 30 27 30 33 31 22 30 26 28 28 27 24 26 27 32 29 24 16 2 23 26 24 43 43 30 46 46 53 51 51 50 50 49 45 11 27 29 14 4
37 31 31 32 13 19 15 18 25 20 28 30 33 33 34 27 27 26 28 32 31 28 28 30 31 28 18 16 27 24 44 34 34 41 37 41 46 49 47 50 49 47 45 31 15 20 13 12 15
22 25 29 32 40 24 34 25 20 23 33 29 34 37 32 30 34 29 29 32 33 33 36 33 28 25 11 10 20 27 27 21 18 27 28 37 40 44 46 47 47 45 35 25 20 14 15 10 11
22 27 41 35 34 37 28 11 18 21 26 35 39 41 40 37 40 33 32 37 36 38 39 39 36 27 18 15 16 21 26 10 10 18 23 35 39 39 40 42 41 40 37 33 33 14 11 14 19
37 49 48 48 44 48 27 37 38 34 19 28 38 44 40 41 40 37 38 40 39 43 45 46 39 38 17 30 5 18 19 15 21 35 36 33 32 36 38 35 37 39 32 31 22 16 19 26 23
34 52 46 52 51 46 36 31 18 27 22 27 37 42 37 40 43 42 40 42 43 46 48 48 44 41 39 37 41 24 17 26 34 33 31 31 32 34 36 37 37 35 33 31 25 22 24 23 22
61 40 47 40 44 42 38 39 42 40 19 30 37 37 35 38 42 40 45 51 51 51 49 49 47 52 45 55 57 57 49 34 27 25 31 32 35 37 36 35 34 32 29 27 25 9 27 22 21
39 51 54 54 49 49 48 38 45 41 16 31 36 35 34 41 49 50 55 55 51 51 49 49 49 53 55 58 55 53 41 42 36 36 38 36 34 35 35 33 31 29 27 26 27 23 23 21 29
83 61 51 46 32 38 43 47 46 38 14 26 37 32 34 39 44 49 54 53 51 53 52 54 55 55 57 60 59 55 51 49 47 44 39 38 37 36 34 33 31 30 27 24 24 26 34 36 36
Wind_Direction
130 140 161 169 159 175 216 205 196 216 223 257 268 280 314 275 257 270 228 219 205 266 33 77 91 96 98 97 99 102 103 107 110 113 114 113 110 113 105 101 105 120 148 175 176 183 195 209 221
124 136 145 140 173 13 355 203 178 192 220 334 323 332 322 350 347 311 254 211 209 252 52 185 94 102 101 101 101 102 103 107 111 115 118 121 122 121 117 109 109 119 137 165 179 180 189 206 219
129 153 159 176 11 25 28 20 323 145 196 214 248 282 264 276 246 240 291 214 224 288 58 83 97 108 104 103 99 101 99 106 109 115 112 124 130 132 137 134 144 142 141 159 178 188 194 194 201
133 144 143 73 32 16 31 56 6 40 214 235 250 314 291 253 230 262 260 219 246 342 61 87 96 111 114 105 100 101 99 101 99 90 109 121 121 122 136 154 157 162 160 168 177 185 180 172 168
138 138 112 77 69 38 28 39 336 11 357 12 282 334 329 282 310 7 314 249 339 350 54 71 96 135 117 122 102 99 99 98 99 111 126 117 109 126 127 132 143 148 155 156 166 166 160 157 165
132 139 117 105 91 83 53 222 306 28 43 27 30 6 324 251 277 315 300 268 265 331 55 36 74 231 179 179 100 95 91 86 80 70 143 145 140 141 136 133 136 137 132 145 157 168 166 172 167
147 140 124 96 91 92 84 159 62 61 63 31 226 352 293 313 241 276 329 332 297 294 35 49 49 20 224 97 94 92 84 73 58 202 173 165 151 153 143 133 132 140 147 158 183 192 193 191 183
164 138 124 115 98 87 78 70 65 14 12 280 217 331 354 350 246 297 4 21 9 330 45 66 56 40 250 238 118 156 261 316 245 234 211 190 171 160 166 142 148 153 158 163 174 175 181 191 181
169 107 55 100 126 95 93 92 121 196 290 285 281 348 27 58 45 27 23 32 28 33 43 73 83 76 279 243 270 246 254 257 243 239 222 224 176 166 154 249 184 179 187 189 198 202 209 199 176
149 3 14 301 4 81 106 91 72 89 62 48 31 29 55 68 82 62 58 54 50 60 54 67 95 109 92 251 260 268 256 257 253 242 232 224 220 203 217 208 202 197 202 199 200 206 201 175 221
104 45 20 15 15 41 67 25 57 63 91 83 66 72 81 86 95 93 89 78 66 65 64 65 92 102 113 114 15 276 255 255 269 252 234 241 229 198 191 204 174 183 168 197 203 214 227 274 257
113 83 52 19 40 46 34 24 46 343 11 66 68 67 64 68 64 76 81 78 70 52 51 68 89 103 104 263 270 267 262 254 266 260 224 254 233 237 236 221 232 195 198 225 224 249 264 252 246
129 88 53 55 47 39 39 28 30 22 43 68 66 68 64 55 59 51 62 58 48 38 43 59 79 92 252 128 218 233 250 256 256 255 244 260 254 244 226 244 229 231 229 248 252 254 267 265 252
94 84 67 67 64 61 53 49 66 47 58 73 75 64 55 47 50 46 53 53 52 26 7 55 53 82 184 154 275 264 296 276 240 248 254 258 268 266 251 270 258 254 258 271 279 280 273 268 265
64 74 57 61 76 64 42 57 51 81 91 82 79 58 39 35 45 31 34 39 46 35 356 32 43 92 240 255 285 266 306 291 291 276 253 255 264 286 257 299 296 285 275 257 272 262 269 265 273
61 75 53 65 89 49 91 39 48 82 101 100 97 77 50 27 22 31 34 18 38 26 19 8 28 60 252 254 261 268 305 296 267 254 246 256 264 281 283 293 301 287 271 273 292 284 277 276 270
114 73 175 62 105 30 94 12 54 91 112 111 99 106 99 72 74 68 48 35 30 29 23 37 15 82 251 256 257 266 294 320 300 251 246 246 255 272 275 289 285 278 273 273 279 286 268 269 304
12 53 129 177 105 127 79 99 44 101 119 119 124 111 115 110 124 108 82 49 26 27 36 49 22 37 259 259 264 261 291 330 291 253 251 242 245 270 273 275 281 275 271 276 294 273 279 290 356
34 232 294 123 346 88 86 288 299 48 135 138 132 117 114 126 107 103 90 65 51 48 46 56 79 90 101 265 235 267 267 286 234 218 221 227 239 249 256 272 285 278 279 284 268 273 305 10 354
3 303 353 39 27 89 52 200 200 179 172 162 147 102 125 139 125 125 113 102 79 75 70 85 89 96 97 84 89 322 272 286 299 240 220 220 235 244 253 269 280 284 282 282 304 27 21 23 3
20 327 334 183 53 101 49 177 205 194 179 181 170 153 138 141 140 136 128 118 98 87 85 90 109 86 80 53 314 286 274 290 259 248 251 253 246 254 256 269 276 279 278 274 335 19 12 8 4
300 331 329 353 54 42 113 187 93 170 174 167 165 163 160 138 143 133 132 126 117 100 90 93 108 105 106 110 353 268 265 267 248 251 276 251 253 242 257 265 265 265 264 258 56 15 16 48 103
304 338 347 342 84 215 84 55 47 104 158 166 165 160 157 141 136 130 133 132 122 112 111 106 111 105 73 73 267 269 243 259 262 258 265 261 255 256 268 254 258 256 257 313 159 201 146 176 191
330 344 353 348 310 9 10 35 86 111 161 151 160 158 152 147 144 126 124 126 126 122 125 119 106 97 42 331 280 264 262 274 278 272 265 254 257 258 253 264 261 260 217 187 181 161 177 147 161
308 315 299 318 323 333 56 93 162 217 116 151 146 148 145 139 142 133 128 132 130 130 128 122 116 96 72 77 285 273 257 288 291 287 267 258 258 269 276 274 276 246 235 220 237 82 143 80 66
279 271 271 282 289 297 35 336 359 323 81 109 131 145 143 145 145 141 139 137 135 135 136 137 121 110 54 94 353 260 259 262 261 225 226 240 258 270 265 275 237 243 216 226 194 121 90 64 84
281 266 274 267 245 299 324 6 56 359 122 117 134 144 141 148 151 151 142 140 139 140 143 142 134 125 115 117 124 238 253 242 230 232 237 246 265 255 224 230 232 236 232 233 184 124 107 125 142
258 284 270 288 282 299 317 333 334 331 69 132 138 140 138 142 146 143 144 148 146 147 145 145 141 154 126 153 143 152 187 216 228 240 236 257 222 217 225 230 238 240 225 202 183 109 270 217 163
269 267 272 275 281 287 289 332 331 315 76 126 134 130 126 134 143 145 149 150 144 143 143 144 145 154 153 159 159 180 210 212 235 240 209 212 222 215 215 213 201 201 236 274 291 252 245 195 128
244 260 267 270 295 293 302 303 342 317 57 113 130 122 124 129 135 139 145 144 141 144 144 148 154 154 161 169 175 183 192 184 188 197 211 207 201 193 187 179 186 201 225 280 253 186 132 115 103